Location: Montreal
(45.5000°N, 73.5830°W)
Time: 01:19:31
(UTC-04:00)

OTV 5 (USA 277) - Visible Passes

Search period start: 20 October 2017 00:00
Search period end: 30 October 2017 00:00
Orbit: 404 x 417 km, 43.0° (Epoch: 07 September)

Date Brightness Start Highest point End Pass type
(mag) Time Alt. Az. Time Alt. Az. Time Alt. Az.
20 Oct ? 19:21:03 10° W 19:24:02 29° SSW 19:25:53 18° SSE visible
21 Oct ? 18:29:55 10° W 18:33:04 37° SSW 18:36:13 10° SE visible
21 Oct ? 20:08:25 10° WSW 20:09:48 12° SSW 20:10:11 12° SSW visible
22 Oct ? 19:16:40 10° WSW 19:18:55 17° SSW 19:21:10 10° SSE visible
23 Oct ? 18:25:19 10° WSW 18:28:00 22° SSW 18:30:43 10° SSE visible
25 Oct ? 18:21:29 10° SW 18:22:49 12° SSW 18:24:09 10° S visible
